CW4591 Weather Reports


Display with metric or nautical units.
time (UTC)temp
F
wind
direction
speed
MPH
gust
MPH
rain 1hr
in
rain 24hr
in
rain mn
in
humidity
%
barometer
mb
20260505193041 53 260 6.0 10.0 0.00 0.00 0.00 41 999.1
20260505191552 54 232 6.0 14.0 0.00 0.00 0.00 40 999.2
20260505190041 54 283 8.0 17.0 0.00 0.00 0.00 41 999.3
20260505184537 53 266 5.0 11.0 0.00 0.00 0.00 48 999.1
20260505183034 51 281 2.0 6.0 0.00 0.00 0.00 50 999.0
20260505181536 51 284 0.0 8.0 0.00 0.00 0.00 56 999.0
20260505180039 50 310 1.0 4.0 0.00 0.00 0.00 62 998.7
20260505174532 50 359 3.0 8.0 0.00 0.00 0.00 63 998.7
20260505173029 50 359 3.0 7.0 0.00 0.00 0.00 59 998.6
20260505171526 51 354 2.0 8.0 0.00 0.00 0.00 61 998.6
20260505170025 49 315 2.0 7.0 0.00 0.00 0.00 65 998.5
20260505164519 47 243 0.0 2.0 0.00 0.00 0.00 71 998.3
20260505163016 44 244 0.0 2.0 0.00 0.00 0.00 75 998.3
20260505161511 43 243 0.0 2.0 0.00 0.00 0.00 78 998.3
20260505153010 40 270 3.0 5.0 0.00 0.00 0.00 83 998.1
20260505151512 39 291 1.0 3.0 0.00 0.00 0.00 83 998.0
20260505130105 36 70 2.0 5.0 0.00 0.00 0.00 87 998.1
20260505124601 36 37 2.0 5.0 0.00 0.00 0.00 87 998.0
20260505123101 36 150 0.0 4.0 0.00 0.00 0.00 87 998.2
20260505121620 36 158 0.0 0.0 0.00 0.00 0.00 87 998.4
20260505120050 36 159 0.0 2.0 0.00 0.00 0.00 85 998.7
20260505114548 35 81 0.0 0.0 0.00 0.00 0.00 85 998.8
20260505113052 35 81 0.0 0.0 0.00 0.00 0.00 85 999.0
20260505111549 35 81 0.0 0.0 0.00 0.00 0.00 86 999.0
20260505101541 37 208 0.0 0.0 0.00 0.00 0.00 81 999.5
20260505100039 37 208 0.0 2.0 0.00 0.00 0.00 81 999.8
20260505094529 38 209 0.0 0.0 0.00 0.00 0.00 80 999.8
20260505093029 40 209 0.0 0.0 0.00 0.00 0.00 77 999.7
20260505091527 40 208 0.0 4.0 0.00 0.00 0.00 77 1000.1
20260505090020 41 181 0.0 3.0 0.00 0.00 0.00 75 1000.1
20260505084518 42 180 1.0 3.0 0.00 0.00 0.00 74 1000.1
20260505083018 43 181 0.0 4.0 0.00 0.00 0.00 73 1000.3
20260505081514 43 179 2.0 6.0 0.00 0.00 0.00 74 1000.7
20260505080006 43 195 2.0 6.0 0.00 0.00 0.00 75 1000.7
20260505074504 42 151 2.0 7.0 0.00 0.00 0.00 74 1001.1
20260505073002 42 143 0.0 5.0 0.00 0.00 0.00 73 1001.2
20260505071600 42 156 1.0 4.0 0.00 0.00 0.00 73 1001.4
20260505070059 42 127 0.0 2.0 0.00 0.00 0.00 71 1001.9
20260505064607 42 127 0.0 3.0 0.00 0.00 0.00 70 1002.2
20260505063054 43 127 0.0 1.0 0.00 0.00 0.00 68 1002.4
20260505061552 44 126 0.0 4.0 0.00 0.00 0.00 66 1002.7
20260505060050 45 143 0.0 0.0 0.00 0.00 0.00 65 1002.9
20260505054615 46 144 0.0 3.0 0.00 0.00 0.00 63 1003.2
20260505053050 47 143 0.0 0.0 0.00 0.00 0.00 63 1003.4
20260505051545 48 143 0.0 0.0 0.00 0.00 0.00 62 1003.7
20260505041547 51 114 0.0 3.0 0.00 0.00 0.00 53 1004.6
20260505040039 51 131 0.0 2.0 0.00 0.00 0.00 55 1005.0
20260505034533 52 139 0.0 5.0 0.00 0.00 0.00 50 1005.5
20260505033029 53 158 1.0 5.0 0.00 0.00 0.00 50 1005.8
20260505031531 54 151 0.0 5.0 0.00 0.00 0.00 52 1006.0
20260505030026 54 141 0.0 4.0 0.00 0.00 0.00 48 1006.2
20260505024523 55 148 1.0 5.0 0.00 0.00 0.00 47 1006.5
20260505023022 55 155 2.0 5.0 0.00 0.00 0.00 46 1006.6
20260505021519 55 104 1.0 5.0 0.00 0.00 0.00 48 1006.9
20260505020016 54 160 1.0 5.0 0.00 0.00 0.00 48 1007.1
20260505014518 54 184 1.0 6.0 0.00 0.00 0.00 48 1007.6
20260505013011 54 184 3.0 7.0 0.00 0.00 0.00 46 1007.9
20260505011513 55 173 2.0 8.0 0.00 0.00 0.00 47 1008.1
20260505010014 53 162 2.0 7.0 0.00 0.00 0.00 48 1008.2
20260505004506 53 183 6.0 11.0 0.00 0.00 0.00 47 1008.6
20260505003005 53 114 4.0 11.0 0.00 0.00 0.00 48 1008.7
20260505001502 54 139 2.0 11.0 0.00 0.00 0.00 47 1009.1
20260504234558 55 175 3.0 10.0 0.00 0.00 0.00 46 1009.6
20260504233102 55 128 5.0 8.0 0.00 0.00 0.00 45 1010.0
20260504231553 55 157 4.0 9.0 0.00 0.00 0.00 45 1010.1
20260504230109 55 148 4.0 10.0 0.00 0.00 0.00 46 1010.6
20260504224600 55 178 1.0 7.0 0.00 0.00 0.00 47 1010.8
20260504223047 56 133 1.0 7.0 0.00 0.00 0.00 48 1011.0
20260504221544 56 154 0.0 8.0 0.00 0.00 0.00 48 1011.3
20260504220051 55 162 2.0 10.0 0.00 0.00 0.00 47 1011.4
20260504214545 55 223 3.0 7.0 0.00 0.00 0.00 48 1011.8
20260504213040 55 131 2.0 10.0 0.00 0.00 0.00 47 1011.9
20260504211538 54 195 4.0 11.0 0.00 0.00 0.00 48 1012.1
20260504210050 53 170 5.0 11.0 0.00 0.00 0.00 49 1012.1
20260504204540 53 166 4.0 10.0 0.00 0.00 0.00 49 1012.4
20260504203034 54 181 1.0 13.0 0.00 0.00 0.00 48 1012.7
20260504201531 56 184 5.0 11.0 0.00 0.00 0.00 44 1012.8
20260504200040 56 152 6.0 13.0 0.00 0.00 0.00 47 1012.9
20260504194527 55 150 6.0 13.0 0.00 0.00 0.00 46 1013.1